星链-6305 (STARLINK-6305 )

导读 | 豆包AI

STARLINK-6305是美国太空探索技术公司(SpaceX)于2023年5月4日发射的星链(Starlink)卫星,属于星链星座组网卫星,主要用于为全球提供高速互联网接入服务,尤其覆盖偏远地区等网络基础设施薄弱区域,进一步扩充了星链星座的在轨规模,推动了全球卫星互联网布局。

Basic Information
目录编号:
56394
目录名称:
STARLINK-6305
国际标识:
2023-061W
轨道中心:
EARTH
卫星名称:
星链-6305
卫星全名:
星链-6305 (STARLINK-6305 )
卫星状态:
在轨 (已飞行1092 天)
发射日期:
2023-05-04 UTC
国别 :
美国 (US)
星等 :
--
Orbit Information
数据来源 国际轨道数据 AOE轨道数据
星历时间 2026-04-30T04:18:20+0800
12小时前
查看轨道信息
2026-04-26T07:00:00+0800
4天前
查看轨道信息
半长轴 6863.707km 6863.695km
偏心率 0.0002491 0.0001964
轨道倾角 43.005° 43.005°
近地点辐角 279.531° 274.033°
升交点赤经 257.689° 279.623°
平近点角 80.526° 292.972°
近地点 483.86km 484.209km
远地点 487.28km 486.907km
周期 94.319分钟 94.318分钟
每日圈数 15.267386 15.267428
Detailed Information
固有亮度:
5
最大亮度:
2.5
卫星平台:
Starlink v1.5
覆盖范围:
全球
运营商:
太空探索技术公司
运营商所在国:
美国
制造商(研发单位):
太空探索技术公司
制造商所在国:
美国
使用方式:
暂无
Satellite Introduction
星链(Starlink)计划是由太空探索技术公司(SpaceX)提出的一个巨型低轨卫星互联网星座项目,计划在2019年至2024年间在太空搭建由约1.2万颗卫星组成的“星链”网络,其中1584颗将部署在地球上空550千米处的近地轨道,并从2020年开始工作。该卫星仍在工作。
2D Orbit Map
3D Orbit Map
Orbit Altitude Analysis Chart
Orbit Inclination Analysis Chart
Orbit Comprehensive Analysis Chart
View Comprehensive Chart